Lapse_Rate
7.2 7.2 7.6 7.5 7.5 7.4 7.4 7.2 6.7 6.4 6.5 6.3 6.3 6.0 5.4 5.3 4.8 6.1 2.3 0.6 4.5 2.1 3.1 2.4 4.1 7.2 6.4 6.9 6.5 6.7 6.6 6.3 6.6 6.5 6.5 6.5 6.5 6.5 6.5 6.5 6.5 6.5 6.5 6.5 6.5 6.5 6.5 7.0 6.8 6.5 6.7 7.2 7.4 7.4
7.3 7.4 7.3 7.4 7.3 7.2 6.9 6.6 6.3 6.4 6.2 6.3 6.3 5.8 5.9 4.5 5.0 5.4 2.0 0.2 -0.4 0.6 3.7 2.7 1.9 0.8 1.0 2.5 3.4 6.4 6.5 6.8 6.8 6.5 6.5 6.5 6.5 6.5 6.5 6.5 6.5 6.5 6.5 6.5 6.5 6.5 6.7 7.3 6.9 7.7 7.7 7.3 7.5 7.6
7.3 7.4 7.4 7.2 7.1 6.8 6.5 6.3 6.3 6.2 6.4 6.3 5.5 6.0 4.9 4.7 4.7 3.5 1.3 0.0 0.9 4.0 4.7 4.6 4.0 2.7 2.4 1.6 2.0 5.9 6.0 6.6 6.8 7.0 6.8 6.5 6.5 6.5 6.5 6.5 6.5 6.5 6.8 6.5 6.5 6.5 6.6 7.2 7.8 8.1 8.1 7.9 8.2 8.4
7.4 7.4 7.3 7.2 6.7 6.2 6.2 6.3 6.3 6.2 6.1 6.0 5.7 4.9 5.1 4.4 4.9 2.4 2.1 0.6 1.1 3.8 6.5 6.4 4.1 3.8 3.6 4.2 4.0 4.2 4.4 6.1 6.2 7.4 6.9 6.5 6.5 6.8 6.5 6.5 6.5 6.6 6.6 6.5 6.5 6.6 7.1 7.5 7.8 7.9 8.1 8.4 8.3 8.5
7.2 7.2 6.9 6.4 6.2 6.4 6.3 6.5 6.5 6.5 6.6 5.9 5.3 6.0 4.9 3.6 2.2 1.0 0.0 -0.2 0.4 1.8 6.6 6.8 5.5 5.1 5.0 6.0 5.2 5.2 5.1 5.5 7.4 7.0 6.6 6.5 6.8 6.6 6.6 6.5 6.5 6.9 6.5 6.5 6.5 6.9 6.9 7.1 7.9 8.2 8.1 8.1 8.4 8.3
7.2 6.7 6.4 6.3 6.4 6.2 6.3 6.2 6.8 6.5 5.7 5.4 5.7 5.2 3.4 2.8 3.3 4.0 3.9 2.5 0.9 1.0 5.3 6.5 6.2 6.8 7.1 7.8 7.8 8.3 8.6 8.3 7.8 7.2 6.8 7.2 7.7 6.9 6.5 6.5 6.7 7.4 7.6 7.7 6.9 7.8 7.8 8.0 8.3 8.6 8.3 8.4 8.6 8.5
6.4 6.5 6.2 6.6 6.3 5.7 5.6 5.3 5.6 5.9 5.6 5.0 4.8 4.1 3.8 3.9 2.7 3.4 4.5 3.0 2.0 1.1 5.4 6.6 6.6 6.6 6.9 7.9 8.3 8.2 8.4 8.0 7.8 7.3 6.9 7.0 7.2 7.1 6.5 6.5 6.8 7.5 7.8 7.9 8.2 8.0 7.5 8.0 7.8 8.5 8.6 8.7 8.6 8.8
6.4 6.7 6.5 5.6 5.6 5.6 5.6 5.7 6.1 5.6 4.7 4.4 3.6 4.2 3.6 3.1 2.7 3.5 4.1 3.5 2.4 1.4 6.0 6.5 6.5 7.0 8.3 7.4 7.0 8.1 7.4 7.8 7.6 7.2 7.4 6.8 7.3 7.0 6.5 6.7 7.3 7.7 7.9 7.9 8.0 8.3 8.2 8.5 8.6 8.6 8.6 8.5 8.3 8.3
5.3 6.0 5.5 5.7 5.8 5.8 5.7 5.8 5.6 4.9 3.9 3.6 4.5 3.8 2.6 3.1 4.5 5.2 4.9 3.4 4.5 5.0 6.6 6.7 6.5 6.5 8.3 7.6 7.8 7.6 7.7 6.5 7.7 6.5 6.6 6.9 6.5 6.5 6.5 6.9 7.2 7.6 7.5 7.7 8.2 8.3 8.3 8.0 7.9 8.1 8.2 8.2 8.2 8.2
5.5 5.4 5.6 5.9 5.8 5.8 5.4 4.9 4.8 4.5 3.3 4.6 3.9 4.0 5.5 5.6 5.2 4.7 5.7 6.5 7.2 7.9 7.9 6.5 7.6 6.5 7.8 7.3 6.8 6.8 7.2 6.5 6.5 6.6 7.6 6.5 6.5 7.2 7.6 7.8 7.9 8.0 8.2 8.3 7.6 7.4 7.7 7.8 8.0 8.0 8.0 8.2 8.1 7.9
5.2 5.3 5.5 5.5 5.2 4.9 4.9 5.3 5.8 4.6 5.2 3.9 5.2 6.6 6.3 6.9 5.6 7.4 6.9 6.6 6.8 6.5 7.4 7.4 7.5 6.6 8.2 6.5 6.5 7.2 6.5 6.5 6.5 6.5 6.5 6.5 6.5 6.6 7.9 7.9 8.3 8.4 8.4 8.3 8.3 8.3 8.2 7.9 7.3 7.3 7.6 7.4 7.3 7.5
5.3 5.4 5.4 5.0 5.2 5.3 5.9 6.1 5.2 4.2 4.2 5.4 6.6 7.4 7.3 7.2 7.2 6.5 6.5 6.6 6.5 6.5 7.0 6.6 7.2 7.6 7.6 8.1 6.7 6.9 6.5 6.5 6.5 6.9 6.5 6.5 6.5 7.5 7.8 7.9 8.2 8.4 8.4 8.1 7.6 6.2 6.6 7.3 7.1 7.3 7.5 7.6 7.5 8.2
5.5 5.7 5.3 5.2 5.8 5.8 5.3 4.8 5.4 5.1 5.8 5.2 6.6 6.6 7.1 6.8 6.5 6.5 6.5 6.5 6.5 6.6 7.3 7.3 6.6 7.5 7.7 7.7 6.8 6.5 6.5 6.5 7.1 6.5 6.5 6.5 7.1 7.7 7.8 8.0 8.1 7.9 8.2 8.3 8.2 8.4 8.5 8.5 8.7 8.5 8.3 8.6 8.7 8.6
5.7 6.1 6.2 5.6 5.6 5.4 5.6 5.4 6.6 6.0 6.9 6.8 6.7 6.5 6.5 6.5 6.5 6.5 6.5 6.5 7.1 7.4 7.7 7.6 7.0 6.7 7.3 6.5 6.5 6.5 6.5 6.5 6.5 6.5 6.5 6.5 7.2 7.6 8.0 8.2 8.3 8.0 8.4 8.3 8.1 8.4 8.4 8.4 8.6 8.7 8.3 8.2 7.9 8.2
5.5 6.0 5.7 5.3 5.1 5.4 5.5 5.1 3.4 6.2 8.1 7.0 6.9 6.5 6.5 6.7 6.9 7.1 7.4 7.5 8.3 8.5 7.8 7.2 7.1 7.2 6.5 6.5 6.5 6.5 6.5 6.5 6.5 6.5 6.5 7.1 7.5 7.8 7.8 8.1 8.2 8.2 8.2 8.3 8.6 8.5 8.0 8.3 8.4 8.4 8.5 8.8 8.7 8.3
5.0 4.2 4.8 5.0 5.2 5.6 4.0 4.5 6.1 8.0 8.3 7.4 7.1 6.5 6.8 6.6 6.5 6.5 7.0 7.0 8.2 7.9 7.9 7.5 6.5 6.5 6.5 6.5 6.5 6.5 6.5 6.5 6.5 6.5 7.4 7.6 7.8 7.9 7.9 8.2 8.4 8.5 8.6 8.6 8.7 8.7 8.7 8.3 8.3 8.8 8.9 8.9 8.3 8.7
7.2 6.6 6.0 5.8 5.3 4.8 4.5 7.6 8.8 7.9 7.4 7.0 6.6 7.2 7.2 7.2 6.8 6.9 7.5 7.5 8.4 7.5 6.5 6.5 6.5 6.5 6.5 6.5 6.5 6.5 6.5 6.5 7.0 7.2 7.9 8.1 8.0 8.1 8.3 8.4 8.1 8.4 8.6 8.6 8.7 8.8 8.8 9.0 9.0 9.0 8.7 8.9 9.1 9.1
7.5 7.5 6.6 5.1 5.5 7.1 7.9 8.8 8.1 7.6 6.6 7.1 6.6 7.0 7.3 7.3 7.0 7.4 7.7 8.2 7.8 7.4 7.1 6.5 7.0 6.5 6.5 6.5 6.5 6.5 7.1 7.5 7.8 7.8 7.9 8.2 8.5 8.5 8.6 8.5 8.5 8.6 8.6 8.7 8.8 8.8 8.9 8.8 8.8 8.8 8.9 9.1 9.1 9.1
5.5 5.7 4.6 4.3 6.6 8.8 8.1 8.2 8.4 6.7 6.9 7.4 7.5 7.8 7.7 7.5 8.0 8.2 8.2 8.3 8.4 8.4 7.7 7.0 6.5 6.5 6.5 6.6 6.7 7.2 7.5 7.7 7.5 7.8 8.2 8.5 8.6 8.5 8.5 8.4 8.5 8.7 8.7 8.8 8.9 8.9 9.0 9.0 9.1 9.2 9.3 9.3 9.1 9.2
3.9 3.2 3.1 3.3 5.7 8.4 7.6 7.8 8.7 7.5 6.6 7.2 7.9 7.6 7.7 7.6 7.9 7.9 8.0 8.0 7.9 7.5 6.7 6.5 6.5 6.9 7.1 7.6 7.9 7.8 8.0 8.1 8.2 7.8 7.9 8.2 8.7 8.7 8.7 8.7 8.7 8.8 8.8 8.9 8.9 8.6 9.1 9.1 9.3 9.3 9.3 9.2 8.9 8.6
6.6 4.2 3.0 5.3 8.7 8.7 8.2 7.8 7.7 7.8 7.7 7.2 7.9 7.8 7.5 7.9 7.5 7.4 7.5 8.1 7.2 6.9 6.5 7.4 7.5 7.8 8.2 8.3 8.5 8.4 8.4 8.6 8.2 8.2 8.0 8.1 8.7 8.8 8.8 8.9 8.9 8.9 8.7 8.7 8.7 8.7 8.8 8.9 9.2 9.4 9.1 8.7 8.7 8.8
4.7 2.0 5.9 7.5 8.4 8.3 8.0 8.6 7.9 8.1 7.6 7.5 7.5 7.7 7.0 6.7 6.9 7.2 8.0 7.1 7.0 7.4 7.7 7.7 7.9 8.1 8.0 8.0 8.3 8.6 8.6 8.6 8.4 7.4 7.5 8.0 8.5 8.6 8.7 8.8 8.8 8.5 8.7 8.7 8.8 8.7 8.9 9.2 9.2 9.2 9.0 8.7 8.8 8.8
2.8 6.4 8.6 8.5 6.9 7.2 7.0 8.5 7.1 7.4 6.5 6.6 7.3 6.6 6.5 6.7 7.3 8.2 6.8 7.3 7.5 8.2 8.3 8.2 8.3 8.5 8.2 8.5 8.7 8.7 8.5 8.7 8.6 8.6 8.6 8.8 8.9 8.9 8.9 8.9 8.9 8.6 8.5 8.8 9.1 9.0 8.9 7.8 9.0 8.8 8.8 8.8 8.7 8.7
3.6 6.1 6.4 7.1 7.3 6.5 7.5 6.8 7.5 7.0 7.0 6.6 6.5 6.5 6.5 6.7 7.6 6.8 6.5 6.9 7.6 8.3 8.3 8.2 8.4 7.6 8.3 8.5 8.4 8.5 8.7 9.0 8.8 8.9 9.0 8.9 8.7 8.8 9.0 9.0 9.1 9.1 8.8 9.1 9.0 8.9 8.9 8.8 8.4 8.9 8.8 8.6 8.6 8.6
6.4 6.2 7.0 6.5 7.2 6.6 6.5 6.5 6.5 6.5 6.5 6.5 6.5 6.5 6.5 7.4 6.5 6.5 6.5 6.9 7.7 7.8 7.9 8.3 8.3 8.4 8.2 8.2 8.5 8.7 9.0 9.0 8.7 8.5 8.9 9.1 8.9 9.0 8.9 9.1 9.1 9.1 7.5 8.5 8.6 8.5 8.6 8.7 8.7 8.6 8.7 8.7 8.6 8.5
6.5 6.9 6.6 6.5 6.6 6.5 6.5 6.5 6.5 6.5 6.5 6.5 6.5 6.8 7.1 6.5 6.5 6.5 6.5 7.2 7.5 7.5 7.1 7.5 8.2 8.1 8.2 8.5 8.4 8.5 8.7 9.2 9.1 8.6 8.9 9.2 9.0 8.7 8.5 8.4 8.5 8.7 6.7 5.9 6.3 7.8 8.5 8.4 8.4 8.3 8.6 8.7 8.5 8.5
6.5 6.5 7.3 8.1 7.5 7.3 6.7 6.9 7.1 6.5 6.5 6.5 6.5 6.5 6.5 6.5 6.5 6.5 7.8 8.2 8.1 8.2 8.1 8.5 8.7 8.5 8.4 8.6 8.8 9.0 9.2 9.2 9.0 9.0 9.2 9.3 9.0 8.8 8.9 8.6 8.0 8.4 5.9 5.1 5.1 5.4 6.5 7.3 8.2 8.5 8.5 8.7 8.7 8.4
7.0 7.1 6.5 6.9 6.9 7.3 6.5 6.5 6.5 6.5 6.5 7.0 6.8 6.5 6.5 6.5 6.5 7.5 8.0 8.4 8.4 8.6 8.8 8.9 9.0 9.0 8.8 8.0 7.0 6.4 5.9 5.1 5.1 5.7 5.8 6.0 6.0 5.7 5.3 5.6 4.9 2.5 4.7 4.5 4.6 4.5 5.0 5.5 7.3 8.2 8.0 6.9 7.7 7.7
6.9 7.5 7.3 6.5 6.7 6.8 6.6 6.5 6.5 7.1 7.6 7.3 6.5 6.5 6.6 7.7 7.9 8.1 8.1 8.4 8.6 7.6 5.9 5.0 4.6 4.6 4.6 5.3 5.5 5.5 4.5 4.8 5.0 5.0 5.9 7.7 6.4 5.5 5.4 5.3 4.8 4.6 5.0 4.8 2.3 3.1 4.5 4.3 4.8 5.1 5.3 5.7 6.2 8.1
6.9 7.7 6.8 6.6 6.5 6.5 6.9 7.3 7.2 7.4 8.1 8.0 8.0 7.9 7.9 6.9 5.0 7.0 6.9 6.7 6.9 5.0 4.3 4.1 3.3 4.2 4.1 4.6 4.9 5.3 5.5 5.9 7.0 7.3 8.0 8.1 8.4 6.2 4.8 4.5 4.6 4.6 4.8 5.1 5.3 5.3 2.3 3.7 4.8 5.3 6.0 7.0 7.5 6.4
7.7 7.4 6.9 6.8 6.5 7.1 7.0 6.6 6.6 6.5 6.1 6.8 5.4 6.8 7.2 6.6 4.5 4.1 4.8 4.6 4.2 3.8 3.9 3.9 4.1 4.6 4.7 5.0 5.2 4.8 5.1 5.2 5.2 5.3 5.9 5.5 4.8 4.6 4.6 4.6 4.8 4.9 4.8 4.7 4.9 5.3 5.8 5.3 6.7 6.4 7.1 6.1 5.4 5.2
7.3 6.9 6.6 6.5 6.6 7.3 7.3 7.1 6.9 7.0 7.0 6.9 7.1 6.8 6.8 6.8 7.0 5.7 3.4 4.3 4.7 5.1 5.5 5.4 5.5 4.9 5.3 5.5 5.8 6.0 5.7 4.8 3.7 4.1 4.4 4.6 4.8 4.5 4.0 4.0 3.4 3.8 4.2 4.1 4.5 4.9 4.6 5.1 6.1 6.6 6.8 6.6 5.5 4.9
7.1 7.2 7.1 6.9 6.8 6.7 7.0 7.2 7.0 6.8 7.1 6.9 7.1 7.2 7.3 7.1 6.8 6.4 4.8 4.8 5.7 6.8 7.0 6.5 6.3 5.2 5.1 5.4 5.4 4.8 5.0 4.8 4.5 4.1 4.0 4.2 4.0 3.7 3.8 3.6 3.6 3.7 3.5 3.9 4.8 4.8 4.6 5.0 5.3 5.8 5.7 4.8 4.7 4.9
Wind_Speed
31 34 33 31 29 30 29 29 28 27 27 25 23 21 22 18 15 19 2 3 1 3 3 7 6 12 8 13 8 7 5 1 2 5 5 4 5 8 5 8 8 11 7 5 6 4 9 10 9 5 4 5 6 8
31 29 28 28 28 28 27 26 25 25 24 22 21 18 21 12 22 25 3 3 6 7 3 4 9 11 5 5 6 10 3 6 5 4 4 3 2 3 5 3 9 5 8 3 6 3 7 6 5 9 4 6 9 11
28 27 28 27 27 25 25 24 24 22 21 20 16 18 9 19 29 13 4 7 5 4 3 3 4 7 10 6 5 5 2 4 5 2 3 2 3 4 4 6 8 5 6 4 3 6 10 9 11 13 14 15 16 17
26 26 26 26 24 24 24 22 20 19 19 17 16 10 19 25 29 15 5 3 7 5 4 3 3 4 11 5 4 3 12 8 8 4 3 3 3 4 4 2 6 4 7 7 9 11 13 15 13 13 14 16 15 17
24 26 26 25 24 23 21 19 17 18 20 19 15 10 17 28 29 16 8 3 2 6 4 3 1 9 7 5 12 13 13 11 6 4 3 4 2 3 2 2 7 8 6 7 3 3 6 11 12 12 14 14 15 15
25 24 23 23 21 20 18 17 17 16 15 13 16 29 31 35 32 8 3 3 2 4 5 3 1 5 7 10 12 12 9 7 3 4 3 2 3 3 3 3 2 3 5 5 8 9 9 12 14 15 15 16 17 16
21 20 19 18 19 18 17 16 16 15 14 21 27 28 28 19 7 3 6 10 10 3 4 5 4 2 1 4 4 5 4 2 2 2 2 3 4 3 2 2 5 2 4 5 8 8 10 13 13 14 15 15 14 15
21 21 19 15 17 17 16 16 17 16 26 28 30 32 29 23 12 10 7 14 7 7 4 5 4 4 5 4 4 2 3 3 2 2 2 3 3 3 3 3 2 2 4 7 8 9 13 12 14 15 13 10 13 12
18 19 17 17 15 15 15 15 23 31 37 33 27 19 7 6 3 3 8 1 1 4 5 4 9 5 6 5 5 3 2 2 1 2 3 3 3 3 1 2 1 5 5 8 9 8 10 11 11 12 12 12 13 12
15 17 18 17 16 19 23 31 36 37 34 23 8 5 3 3 21 14 3 3 3 2 3 4 6 6 11 8 3 4 2 4 4 2 4 3 3 3 2 1 2 3 5 7 9 10 11 13 14 15 14 12 13 14
16 17 18 19 25 29 32 34 33 28 17 4 3 3 7 15 2 2 3 3 4 4 4 6 11 12 9 6 6 2 4 4 4 4 3 5 3 3 4 3 4 4 6 8 10 13 15 17 16 13 11 10 11 12
19 20 22 27 32 34 35 28 20 4 3 8 12 7 4 3 4 5 4 4 4 5 7 13 14 9 5 4 4 3 3 1 2 6 3 3 4 5 3 5 6 7 9 12 13 12 12 12 12 12 12 13 13 14
22 26 32 34 33 28 22 19 20 27 28 5 4 5 5 2 4 5 7 5 7 6 13 12 11 5 4 3 4 3 3 3 8 3 3 4 6 5 4 2 6 9 9 11 11 12 12 13 13 12 12 12 14 13
36 36 35 32 28 25 28 28 18 9 3 3 3 5 3 3 3 2 6 10 7 13 15 12 7 4 3 4 3 4 3 4 4 5 4 5 6 5 10 6 7 8 10 10 9 9 11 11 12 11 7 8 8 10
34 31 28 27 32 31 21 13 9 2 3 4 4 5 4 3 4 10 11 15 16 14 13 10 6 5 4 4 3 4 4 4 5 3 5 7 9 7 5 6 6 5 5 6 7 8 4 6 10 10 6 9 10 9
31 26 19 30 27 18 14 5 2 2 3 4 5 9 8 9 9 11 13 13 13 12 8 5 5 4 3 6 4 5 8 3 4 5 7 7 6 6 6 4 5 6 6 6 7 8 10 8 9 12 10 10 7 10
18 7 18 19 16 10 8 1 2 5 4 5 4 5 9 12 11 9 10 10 10 6 3 4 4 3 5 3 4 3 3 6 9 7 6 6 6 5 4 4 3 2 4 5 7 8 8 9 10 10 12 12 13 13
14 10 13 18 16 8 1 3 3 5 8 6 6 7 8 7 8 9 7 7 6 4 3 3 5 4 4 5 5 6 9 8 8 7 6 6 6 5 3 4 2 2 3 4 6 6 7 8 9 8 11 11 12 12
11 8 8 10 7 2 3 4 4 5 6 7 8 9 8 7 9 9 7 7 8 7 5 3 3 3 3 4 10 9 8 8 7 6 6 6 5 6 4 3 1 1 2 4 5 4 5 7 6 7 7 9 9 9
13 17 9 5 9 3 5 4 4 6 4 4 9 8 6 6 6 5 6 7 5 3 2 2 3 6 7 8 8 8 7 9 8 7 6 5 5 5 4 3 2 1 1 2 3 2 5 5 5 7 7 8 9 10
3 7 7 3 3 7 5 4 5 6 6 5 7 6 5 5 6 5 4 2 2 1 3 5 7 7 10 8 7 7 8 7 7 5 8 6 6 5 5 3 3 1 1 2 3 3 4 5 6 7 8 8 8 9
3 9 3 6 5 5 6 8 5 4 3 6 6 4 5 4 4 3 3 2 3 4 3 6 7 8 8 9 8 8 8 9 8 6 7 8 7 6 5 4 3 1 0 1 2 3 4 5 5 6 7 8 9 8
4 3 4 5 5 5 3 3 4 4 5 7 5 4 3 3 3 3 3 2 3 3 4 7 9 9 10 10 10 10 9 9 6 6 6 5 5 5 5 4 3 2 2 1 2 3 3 3 4 5 7 8 8 9
4 5 5 4 5 4 2 2 3 3 3 3 3 4 4 3 2 1 1 3 4 6 7 10 9 8 8 10 8 8 7 6 6 6 6 7 6 5 5 4 3 2 1 1 1 2 3 3 4 5 6 7 8 9
4 7 4 7 4 4 4 3 3 4 3 2 3 3 3 3 3 3 2 4 6 7 8 9 9 9 8 8 7 7 7 7 7 7 6 5 5 5 5 4 3 2 2 2 0 2 3 3 4 5 6 7 9 10
6 5 3 2 2 3 3 3 3 4 4 3 2 4 3 3 4 4 3 5 6 7 8 9 9 9 8 8 8 8 8 6 6 6 6 5 5 5 5 5 5 4 2 1 1 1 3 3 4 6 6 7 7 8
4 4 3 2 3 5 5 5 5 4 3 4 5 5 4 4 5 2 3 3 5 8 9 8 7 7 8 8 7 7 7 6 5 6 6 5 3 2 2 4 4 3 3 2 1 1 3 3 4 5 5 5 5 6
3 2 4 2 4 3 4 4 3 2 2 3 6 4 5 3 2 2 3 3 6 9 9 6 5 6 8 8 8 8 8 8 9 8 6 4 3 3 3 3 4 3 2 2 1 1 2 3 4 5 5 5 5 5
3 3 3 4 3 4 3 2 2 2 2 5 3 3 3 3 2 3 4 6 7 8 9 8 7 6 8 8 7 7 8 8 11 11 10 6 5 5 5 4 4 4 3 3 5 3 3 3 3 4 5 4 4 4
3 2 3 2 2 3 3 5 3 3 4 3 2 3 4 3 3 3 5 5 6 5 5 6 7 7 8 9 8 8 6 6 5 6 6 6 5 5 6 5 4 4 3 3 3 2 4 4 3 5 4 3 3 4
2 1 3 3 3 3 2 2 2 2 3 3 4 3 4 3 3 3 4 3 4 5 6 7 7 6 8 8 8 9 8 6 5 4 4 5 6 6 6 5 4 3 3 3 3 3 2 3 3 3 3 4 4 4
3 3 2 3 3 2 1 2 2 2 2 2 2 2 2 2 3 2 2 0 3 4 5 6 7 7 5 5 5 5 4 7 9 7 9 6 6 6 6 5 4 3 3 3 3 3 3 4 4 4 4 4 4 4
3 4 4 3 3 3 2 1 2 2 2 2 2 1 1 2 2 2 2 3 3 3 3 4 4 5 7 7 7 6 6 7 11 10 9 8 8 7 5 4 4 4 4 3 3 4 4 5 5 5 5 4 5 5
Wind_Direction
179 185 186 183 185 185 183 183 181 182 190 197 195 201 203 208 237 206 170 338 106 86 47 10 18 180 169 184 168 138 105 58 124 186 198 186 219 201 230 232 198 191 189 198 222 258 264 116 141 206 54 133 178 249
174 174 174 175 177 176 177 177 177 184 188 194 200 204 203 216 225 187 114 104 67 70 88 44 81 43 14 353 121 170 139 150 155 172 202 199 173 190 250 246 193 226 217 286 209 268 119 200 205 229 259 250 279 296
168 171 168 166 168 169 171 173 177 180 184 189 198 214 218 242 192 145 129 128 83 101 67 39 11 337 18 5 308 123 184 136 151 33 104 104 184 175 178 231 207 231 242 224 277 264 284 250 239 258 265 265 259 259
157 156 161 160 160 161 167 168 171 172 172 190 205 206 240 195 168 130 135 151 94 101 99 49 328 19 320 337 45 66 112 84 112 134 117 155 187 212 226 339 237 244 171 234 254 268 281 270 263 281 292 279 284 281
150 153 153 155 155 159 159 157 165 172 178 188 182 190 170 135 116 100 81 36 49 111 121 109 159 13 7 41 93 98 108 116 144 151 173 180 102 190 194 272 243 208 219 214 245 295 283 292 304 303 294 285 277 285
145 143 146 147 147 149 151 149 156 159 163 167 149 137 131 129 128 121 87 7 6 121 110 103 90 24 62 96 114 133 143 145 153 158 135 127 36 264 223 237 56 328 218 276 278 311 304 293 289 284 285 290 286 282
139 136 137 147 142 145 151 158 154 157 153 141 141 146 136 111 74 117 160 139 146 107 91 108 101 33 39 117 103 113 138 108 126 113 197 132 149 188 240 262 89 349 312 299 300 298 292 286 299 315 306 300 299 294
144 145 153 150 146 147 154 157 152 157 140 122 112 107 102 95 83 67 72 105 90 86 82 111 106 140 196 139 117 280 120 114 46 109 154 174 134 209 255 248 25 321 319 293 277 285 299 300 297 305 321 329 310 302
137 141 143 146 151 145 157 157 143 132 123 117 112 100 71 48 73 123 142 190 91 95 110 144 150 144 180 149 145 128 118 112 140 163 153 183 172 211 232 5 266 9 321 318 324 324 336 343 321 316 309 310 310 318
153 147 150 151 141 149 152 139 138 132 121 115 59 52 80 64 130 134 33 61 61 60 80 135 128 138 166 146 110 127 149 147 161 109 110 212 216 71 30 299 2 358 350 345 346 343 330 325 322 316 318 322 327 320
159 150 147 138 141 139 135 136 133 122 109 53 75 66 116 141 58 121 110 109 121 102 118 134 132 132 153 132 121 140 146 166 169 134 223 181 172 158 136 75 32 15 354 356 340 342 336 337 337 337 342 357 357 355
147 143 140 142 135 134 136 133 134 100 90 117 104 110 122 210 194 106 96 125 133 129 137 144 140 124 104 123 114 140 97 178 128 140 187 193 111 103 87 60 42 28 13 12 20 37 32 16 14 7 5 2 3 346
145 140 135 130 120 109 103 92 99 112 115 119 96 126 194 159 97 154 148 128 135 131 138 141 142 134 119 87 85 104 110 131 134 178 186 68 110 103 110 99 46 56 27 14 15 14 14 9 359 0 355 354 344 351
109 111 108 106 107 105 105 100 98 68 39 76 73 79 31 94 72 46 122 126 124 132 142 139 116 100 121 88 134 108 111 149 184 176 162 131 139 94 70 50 35 27 20 14 25 9 5 4 357 347 356 334 341 352
96 96 102 111 115 116 95 78 58 31 56 60 28 60 70 103 68 94 117 117 126 125 126 114 87 88 101 120 107 116 166 193 204 131 115 101 81 84 64 50 30 15 7 2 346 351 4 1 341 330 340 331 9 333
94 85 100 124 126 102 78 61 64 116 73 61 49 97 117 110 111 115 117 112 129 129 112 100 99 96 99 126 135 185 169 159 139 108 109 105 121 95 85 62 32 17 2 351 353 347 344 350 327 328 340 342 354 333
92 96 139 142 133 132 216 269 76 55 58 59 34 80 103 108 110 115 115 119 138 117 87 107 96 81 122 138 139 127 102 111 109 104 122 102 108 113 102 84 71 1 343 349 341 342 337 334 328 332 341 341 339 331
93 112 143 156 168 167 57 30 95 74 57 84 88 95 97 90 102 107 116 120 104 103 88 88 117 114 150 138 127 129 120 92 104 125 123 125 121 103 82 94 100 327 332 353 330 330 338 338 334 344 341 339 332 337
72 85 103 161 195 106 82 52 48 82 75 93 100 93 88 90 92 97 89 85 84 92 100 91 114 115 113 95 120 131 127 129 134 129 119 115 112 118 135 92 151 261 358 332 339 350 339 336 344 345 343 346 337 334
93 49 11 339 199 94 81 65 45 74 80 98 100 92 92 95 89 84 78 65 73 80 97 84 69 82 114 114 115 120 122 122 139 141 145 141 157 165 159 168 125 355 311 338 334 344 340 346 359 353 353 340 335 340
42 355 341 58 78 61 73 80 65 96 98 109 127 95 91 106 93 87 80 141 107 63 84 81 102 91 92 97 105 116 130 156 162 182 166 165 161 161 155 152 154 154 328 356 330 0 343 355 358 350 346 344 342 327
28 303 61 28 67 63 60 26 91 93 90 128 121 103 119 122 159 154 154 74 57 67 79 133 128 120 112 119 126 125 123 110 101 97 93 126 159 163 164 160 185 167 212 326 344 352 346 9 359 349 339 342 334 339
280 35 55 45 72 65 95 269 101 105 132 168 167 125 113 115 90 117 67 92 96 97 124 121 129 132 122 131 126 130 138 144 145 140 157 152 138 139 148 151 158 179 215 109 346 343 358 352 6 341 344 340 343 348
21 53 42 50 61 98 98 72 106 102 103 87 76 77 86 83 132 169 175 167 108 142 144 149 141 125 143 149 155 156 159 162 145 153 158 158 160 161 161 154 153 149 131 100 357 348 348 349 341 352 350 343 354 347
60 14 22 53 36 77 79 65 44 70 95 113 90 109 123 148 152 180 222 162 161 172 157 157 160 168 166 167 161 160 165 169 167 163 169 175 153 152 162 163 154 139 155 205 150 325 339 334 343 353 344 352 353 345
75 20 38 91 123 114 126 108 118 124 100 89 101 105 140 160 174 221 186 149 157 170 169 172 172 172 172 171 166 165 172 169 163 162 159 167 174 184 187 192 190 169 158 146 228 300 322 337 335 340 343 350 359 345
81 65 64 10 91 101 90 80 97 98 114 144 157 161 158 183 198 131 119 149 161 157 165 179 172 172 164 156 147 142 147 157 162 147 139 145 133 132 194 203 201 125 147 161 185 274 319 318 322 332 334 343 350 349
76 61 106 91 79 67 100 93 109 110 129 145 143 175 177 174 117 92 80 130 138 143 140 132 136 133 140 141 140 137 127 117 111 112 113 115 126 133 132 125 102 115 149 159 220 262 272 300 311 316 331 331 338 340
75 80 89 72 79 74 65 89 106 85 114 150 122 130 130 72 52 99 124 137 133 136 134 128 114 109 117 128 136 144 151 156 157 164 177 183 178 191 185 178 167 186 190 192 174 253 281 297 312 318 317 318 322 312
77 4 89 72 64 80 68 359 83 55 33 51 81 121 107 85 57 89 123 138 146 144 137 137 144 153 151 153 151 154 164 175 183 185 194 201 190 142 166 175 181 181 205 215 233 197 185 232 225 228 258 299 321 329
56 65 78 65 82 68 63 61 73 84 48 51 24 69 85 107 100 47 73 64 107 129 146 154 162 164 162 162 166 166 170 181 171 148 119 120 136 155 163 166 174 173 194 211 229 242 256 245 256 275 279 300 309 298
47 35 98 105 107 98 94 65 74 74 65 73 80 68 108 135 138 101 35 151 166 173 179 175 176 172 165 155 153 152 162 160 170 165 155 151 155 152 153 157 159 185 192 207 226 246 239 259 272 279 284 278 301 308
85 72 80 110 122 119 84 115 92 104 103 105 90 53 37 359 56 85 87 19 11 8 148 158 121 133 146 146 146 135 131 149 156 157 154 152 147 152 157 163 171 181 192 219 226 239 245 247 259 265 270 282 285 295